Weather History for Clinton, OK

Change the Weather History Date:

Friday, January 31, 2014

  Actual Average (KCSM) Record (KCSM)
Temperature  
Mean Temperature 32 °F -  
Max Temperature 37 °F 48 °F 68 °F (2006)
Min Temperature 26 °F 28 °F 17 °F (2008)
Degree Days  
Heating Degree Days 34    
Moisture  
Dew Point 25 °F    
Average Humidity 75    
Maximum Humidity 86    
Minimum Humidity 56    
Precipitation  
Precipitation 0.00 in - - ()
Sea Level Pressure  
Sea Level Pressure 29.82 in    
Wind  
Wind Speed 12 mph (NNE)    
Max Wind Speed 20 mph    
Max Gust Speed 24 mph    
Visibility 10 miles    
Events      
Averages and records for this station are not official NWS values.
T = Trace of Precipitation, MM = Missing Value Source: NWS Daily Summary

Daily Weather History Graph

Daily Weather History Graph

Search for Another Location

Airport:

Trip Planner

Search our weather history database for the weather conditions in past years. The results will help you decide how hot, cold, wet, or windy it might be!

Date:

Astronomy

Jan. 31, 2014 Rise Set
Actual Time 7:36 AM CST 6:02 PM CST
Civil Twilight 7:09 AM CST 6:29 PM CST
Nautical Twilight 6:38 AM CST 6:59 PM CST
Astronomical Twilight 6:08 AM CST 7:30 PM CST
Moon 7:50 AM CST (1/31) 7:24 PM CST (1/31)
Length of Visible Light 11h 20m
Length of Day
10h 26m
New Moon, 1% of the Moon is Illuminated
Jan 31
New Moon
Feb 6
First Quarter
Feb 14
Full
Feb 22
Last Quarter
Mar 1
New

Hourly Weather History & Observations

Time (CST) Temp. Windchill Dew Point Humidity Pressure Visibility Wind Dir Wind Speed Gust Speed Precip Events Conditions
12:15 AM 37.4 °F 29.8 °F 23.0 °F 56% 29.76 in 10.0 mi NE 11.5 mph - N/A   Clear
12:35 AM 37.4 °F 30.3 °F 24.8 °F 60% 29.75 in 10.0 mi NE 10.4 mph - N/A   Clear
12:55 AM 37.4 °F 30.3 °F 26.6 °F 65% 29.75 in 10.0 mi ENE 10.4 mph - N/A   Clear
1:15 AM 37.4 °F 29.8 °F 26.6 °F 65% 29.75 in 10.0 mi NE 11.5 mph - N/A   Clear
1:35 AM 37.4 °F 29.3 °F 26.6 °F 65% 29.74 in 10.0 mi NE 12.7 mph - N/A   Clear
1:55 AM 37.4 °F 29.8 °F 26.6 °F 65% 29.73 in 10.0 mi NE 11.5 mph - N/A   Clear
2:15 AM 35.6 °F 27.1 °F 26.6 °F 70% 29.73 in 10.0 mi NE 12.7 mph - N/A   Clear
2:35 AM 35.6 °F 28.0 °F 26.6 °F 70% 29.73 in 10.0 mi NE 10.4 mph - N/A   Clear
2:55 AM 35.6 °F 27.5 °F 26.6 °F 70% 29.73 in 10.0 mi NE 11.5 mph - N/A   Clear
3:15 AM 35.6 °F 27.1 °F 24.8 °F 65% 29.72 in 10.0 mi NE 12.7 mph - N/A   Clear
3:35 AM 35.6 °F 27.1 °F 24.8 °F 65% 29.72 in 10.0 mi NNE 12.7 mph - N/A   Clear
3:55 AM 33.8 °F 25.3 °F 23.0 °F 65% 29.72 in 10.0 mi NNE 11.5 mph 18.4 mph N/A   Clear
4:15 AM 33.8 °F 25.3 °F 24.8 °F 70% 29.74 in 10.0 mi North 11.5 mph - N/A   Clear
4:35 AM 33.8 °F 25.3 °F 24.8 °F 70% 29.74 in 10.0 mi NNE 11.5 mph - N/A   Clear
4:55 AM 33.8 °F 25.3 °F 24.8 °F 70% 29.73 in 10.0 mi NNE 11.5 mph - N/A   Clear
5:15 AM 33.8 °F 24.8 °F 24.8 °F 70% 29.74 in 10.0 mi North 12.7 mph - N/A   Clear
5:35 AM 32.0 °F 23.0 °F 23.0 °F 69% 29.74 in 10.0 mi NNE 11.5 mph - N/A   Clear
5:55 AM 32.0 °F 22.5 °F 23.0 °F 69% 29.75 in 10.0 mi North 12.7 mph - N/A   Clear
6:15 AM 32.0 °F 22.1 °F 23.0 °F 69% 29.74 in 10.0 mi NNE 13.8 mph - N/A   Clear
6:35 AM 32.0 °F 23.0 °F 23.0 °F 69% 29.75 in 10.0 mi NNE 11.5 mph - N/A   Clear
6:55 AM 32.0 °F 23.0 °F 23.0 °F 69% 29.77 in 10.0 mi NNE 11.5 mph - N/A   Clear
7:15 AM 32.0 °F 23.6 °F 23.0 °F 69% 29.78 in 10.0 mi NNE 10.4 mph - N/A   Clear
7:35 AM 32.0 °F 23.0 °F 24.8 °F 75% 29.79 in 10.0 mi NNE 11.5 mph - N/A   Scattered Clouds
7:55 AM 33.8 °F 24.8 °F 24.8 °F 70% 29.80 in 10.0 mi NNE 12.7 mph - N/A   Overcast
8:15 AM 33.8 °F 25.3 °F 23.0 °F 65% 29.81 in 10.0 mi North 11.5 mph - N/A   Overcast
8:35 AM 33.8 °F 23.5 °F 23.0 °F 65% 29.82 in 10.0 mi NNE 16.1 mph - N/A   Overcast
8:55 AM 33.8 °F 23.5 °F 23.0 °F 65% 29.83 in 10.0 mi NNE 16.1 mph 20.7 mph N/A   Overcast
9:15 AM 33.8 °F 23.5 °F 23.0 °F 65% 29.85 in 10.0 mi NNE 16.1 mph - N/A   Overcast
9:35 AM 33.8 °F 22.8 °F 23.0 °F 65% 29.85 in 10.0 mi North 18.4 mph - N/A   Overcast
9:55 AM 33.8 °F 22.8 °F 23.0 °F 65% 29.86 in 10.0 mi NNE 18.4 mph 24.2 mph N/A   Overcast
10:15 AM 33.8 °F 22.8 °F 24.8 °F 70% 29.88 in 10.0 mi North 18.4 mph - N/A   Overcast
10:35 AM 33.8 °F 22.5 °F 24.8 °F 70% 29.89 in 10.0 mi North 19.6 mph - N/A   Overcast
10:55 AM 32.0 °F 20.5 °F 24.8 °F 75% 29.91 in 10.0 mi North 18.4 mph - N/A   Overcast
11:15 AM 32.0 °F 20.5 °F 24.8 °F 75% 29.92 in 10.0 mi North 18.4 mph - N/A   Overcast
11:35 AM 32.0 °F 21.6 °F 24.8 °F 75% 29.92 in 10.0 mi North 15.0 mph - N/A   Overcast
11:55 AM 32.0 °F 21.2 °F 26.6 °F 80% 29.91 in 10.0 mi North 16.1 mph - N/A   Overcast
12:15 PM 32.0 °F 20.8 °F 26.6 °F 80% 29.92 in 10.0 mi North 17.3 mph - N/A   Overcast
12:35 PM 32.0 °F 21.6 °F 26.6 °F 80% 29.91 in 10.0 mi North 15.0 mph - N/A   Overcast
12:55 PM 32.0 °F 22.1 °F 26.6 °F 80% 29.90 in 10.0 mi North 13.8 mph - N/A   Overcast
1:15 PM 32.0 °F 21.6 °F 26.6 °F 80% 29.88 in 10.0 mi North 15.0 mph - N/A   Overcast
1:35 PM 32.0 °F 22.1 °F 26.6 °F 80% 29.88 in 10.0 mi North 13.8 mph - N/A   Overcast
1:55 PM 32.0 °F 22.5 °F 26.6 °F 80% 29.88 in 10.0 mi North 12.7 mph - N/A   Overcast
2:15 PM 32.0 °F 22.5 °F 26.6 °F 80% 29.86 in 10.0 mi North 12.7 mph - N/A   Overcast
2:35 PM 32.0 °F 21.6 °F 26.6 °F 80% 29.86 in 10.0 mi North 15.0 mph - N/A   Overcast
2:55 PM 32.0 °F 22.5 °F 26.6 °F 80% 29.86 in 10.0 mi North 12.7 mph - N/A   Overcast
3:15 PM 32.0 °F 23.0 °F 26.6 °F 80% 29.87 in 10.0 mi North 11.5 mph - N/A   Overcast
3:35 PM 32.0 °F 22.1 °F 26.6 °F 80% 29.87 in 10.0 mi North 13.8 mph - N/A   Overcast
3:55 PM 32.0 °F 21.6 °F 26.6 °F 80% 29.86 in 10.0 mi NNE 15.0 mph - N/A   Overcast
4:15 PM 32.0 °F 22.5 °F 26.6 °F 80% 29.85 in 10.0 mi NE 12.7 mph - N/A   Overcast
4:35 PM 32.0 °F 22.1 °F 24.8 °F 75% 29.85 in 10.0 mi NNE 13.8 mph - N/A   Overcast
4:55 PM 30.2 °F 20.2 °F 24.8 °F 80% 29.86 in 10.0 mi NNE 12.7 mph - N/A   Overcast
5:15 PM 30.2 °F 21.9 °F 24.8 °F 80% 29.88 in 10.0 mi NE 9.2 mph - N/A   Overcast
5:35 PM 30.2 °F 22.6 °F 24.8 °F 80% 29.86 in 10.0 mi NNE 8.1 mph - N/A   Overcast
5:55 PM 30.2 °F 22.6 °F 24.8 °F 80% 29.85 in 10.0 mi NE 8.1 mph - N/A   Overcast
6:15 PM 30.2 °F 22.6 °F 24.8 °F 80% 29.85 in 10.0 mi NE 8.1 mph - N/A   Overcast
6:35 PM 28.4 °F 19.1 °F 24.8 °F 86% 29.83 in 10.0 mi NE 10.4 mph - N/A   Overcast
6:55 PM 28.4 °F 20.4 °F 24.8 °F 86% 29.84 in 10.0 mi NNE 8.1 mph - N/A   Overcast
7:15 PM 28.4 °F 19.7 °F 24.8 °F 86% 29.83 in 10.0 mi NNE 9.2 mph - N/A   Overcast
7:35 PM 28.4 °F 18.0 °F 24.8 °F 86% 29.82 in 10.0 mi NNE 12.7 mph - N/A   Overcast
7:55 PM 28.4 °F 17.5 °F 23.0 °F 80% 29.82 in 10.0 mi NNE 13.8 mph - N/A   Overcast
8:15 PM 28.4 °F 18.5 °F 23.0 °F 80% 29.84 in 7.0 mi NNE 11.5 mph - N/A   Overcast
8:35 PM 28.4 °F 18.0 °F 23.0 °F 80% 29.85 in 10.0 mi NNE 12.7 mph - N/A   Overcast
8:55 PM 28.4 °F 19.7 °F 23.0 °F 80% 29.85 in 10.0 mi NNE 9.2 mph - N/A   Overcast
9:15 PM 28.4 °F 18.5 °F 23.0 °F 80% 29.85 in 7.0 mi North 11.5 mph - N/A   Overcast
9:35 PM 28.4 °F 19.1 °F 23.0 °F 80% 29.85 in 10.0 mi North 10.4 mph - N/A   Overcast
9:55 PM 28.4 °F 19.1 °F 23.0 °F 80% 29.84 in 10.0 mi North 10.4 mph - N/A   Overcast
10:15 PM 26.6 °F 16.8 °F 23.0 °F 86% 29.84 in 10.0 mi North 10.4 mph - N/A   Overcast
10:35 PM 26.6 °F 16.2 °F 23.0 °F 86% 29.85 in 10.0 mi North 11.5 mph - N/A   Overcast
10:55 PM 26.6 °F 16.2 °F 23.0 °F 86% 29.84 in 7.0 mi North 11.5 mph - N/A   Overcast
11:15 PM 28.4 °F 19.1 °F 23.0 °F 80% 29.84 in 10.0 mi North 10.4 mph - N/A   Overcast
11:35 PM 28.4 °F 19.1 °F 23.0 °F 80% 29.86 in 10.0 mi North 10.4 mph 16.1 mph N/A   Overcast
11:55 PM 26.6 °F 17.5 °F 23.0 °F 86% 29.85 in 7.0 mi North 9.2 mph - N/A   Overcast